User: anonymous   Login
Location: Luz Observatory
(34.5000°N, 117.2833°W)
Time: 03:21:26
(UTC-07:00)
Language:

Okean 3 Rocket - Orbit

View from above orbital plane
View from above orbital plane
View from above satellite
View from above satellite

Ground track
Ground track

The orbit data is extracted from the following two-line orbital elements,

1 21398U 91039B   16207.91053138  .00000083  00000-0  79323-5 0  9991
2 21398  82.5235 169.8985 0021730 168.0254 243.8507 14.79615591355667
Epoch (UTC): 25 July 2016 21:51:09
Eccentricity: 0.0021730
inclination: 82.5235°
perigee height: 615 km
apogee height: 646 km
right ascension of ascending node: 169.8985°
argument of perigee: 168.0254°
revolutions per day: 14.79615591
mean anomaly at epoch: 243.8507°
orbit number at epoch: 35566

The dashed part of the orbit path shows where the satellite is in the earth's shadow,  

DLR